Location: Newark
(34.3481°N, 134.0494°E)
Time: 04:21:27
(UTC+00:00)

Vanguard 3 - Pass Details

Date: 28 January 2020
Orbit: 508 x 3263 km, 33.3° (Epoch: 19 February)

Event Time Altitude Azimuth Distance (km) Brightness Sun altitude
Rises 05:57:27 0° 221° (SW) 6,021 13.0 24.9°
Reaches altitude 10° 06:01:08 10° 216° (SW) 5,312 13.2 24.4°
Maximum altitude 06:17:30 52° 146° (SE) 3,724 10.9 22.0°
Drops below altitude 10° 06:35:59 10° 78° (ENE) 5,966 11.1 19.2°
Sets 06:40:23 0° 74° (ENE) 6,781 11.3 18.5°
